Jersey, United Kingdom

9:58 PM BST on September 19, 2017 (GMT +0100)
Jersey

Weather History for EGJJ - October, 2012

Change the Weather History Date:

Saturday, October 13, 2012

  Actual Average Record
Temperature  
Mean Temperature 53 °F -  
Max Temperature 57 °F 55 °F 68 °F (2001)
Min Temperature 49 °F 48 °F 43 °F (2013)
Degree Days  
Heating Degree Days 12    
Growing Degree Days 3 (Base 50)    
Moisture  
Dew Point 44 °F    
Average Humidity 71    
Maximum Humidity 94    
Minimum Humidity 48    
Precipitation  
Precipitation 0.00 in - - ()
Sea Level Pressure  
Sea Level Pressure 29.75 in    
Wind  
Wind Speed 19 mph ()    
Max Wind Speed 29 mph    
Max Gust Speed -    
Visibility 6.2 miles    
Events Rain , Thunderstorm , Tornado    
Averages and records for this station are not official NWS values.
T = Trace of Precipitation, MM = Missing Value Source: Averaged Metar Reports

Daily Weather History Graph

Daily Weather History Graph

Search for Another Location

Airport or City:

Trip Planner

Search our weather history database for the weather conditions in past years. The results will help you decide how hot, cold, wet, or windy it might be!

Date:

Astronomy

Oct. 13, 2012 Rise Set
Actual Time 7:27 AM BST 6:22 PM BST
Civil Twilight 6:54 AM BST 6:54 PM BST
Nautical Twilight 6:18 AM BST 7:30 PM BST
Astronomical Twilight 5:41 AM BST 8:07 PM BST
Moon 4:50 AM BST (10/13) 5:03 PM BST (10/13)
Length of Visible Light 11h 59m
Length of Day
10h 55m
Waning Crescent, 6% of the Moon is Illuminated
Oct 13
Waning Crescent
Oct 15
New
Oct 22
First Quarter
Oct 29
Full
Nov 7
Last Quarter

Hourly Weather History & Observations

Time (BST) Temp. Dew Point Humidity Pressure Visibility Wind Dir Wind Speed Gust Speed Precip Events Conditions
1:00 AM 54 °F 50 °F 83% 29.83 in 4 mi SW 21.9 mph - - Rain Heavy Rain Showers
3:50 AM 53.6 °F 50.0 °F 88% 29.77 in 6.2 mi WSW 28.8 mph - N/A   Mostly Cloudy
4:00 AM 54 °F 50 °F 81% 29.78 in 16 mi WSW 24.2 mph - - Rain Light Rain Showers
4:20 AM 53.6 °F 50.0 °F 88% 29.74 in 6.2 mi WSW 26.5 mph - N/A Rain Light Rain Showers
4:50 AM 53.6 °F 51.8 °F 94% 29.77 in 3.7 mi WSW 26.5 mph - N/A Rain Rain Showers
5:20 AM 51.8 °F 48.2 °F 88% 29.74 in 2.2 mi SW 27.6 mph - N/A Rain , Thunderstorm Thunderstorms and Rain
5:50 AM 50.0 °F 46.4 °F 87% 29.74 in 6.2 mi SW 19.6 mph - N/A Rain Light Rain Showers
6:20 AM 51.8 °F 50.0 °F 94% 29.74 in 6.2 mi SW 21.9 mph - N/A Rain Light Rain Showers
6:50 AM 51.8 °F 48.2 °F 88% 29.74 in 6.2 mi WSW 21.9 mph - N/A   Scattered Clouds
7:00 AM 53 °F 49 °F 82% 29.74 in 7 mi WSW 21.9 mph - - Rain Light Rain Showers
7:20 AM 51.8 °F 48.2 °F 88% 29.74 in 6.2 mi WNW 17.3 mph - N/A Thunderstorm Thunderstorm
7:50 AM 53.6 °F 46.4 °F 77% 29.74 in 6.2 mi West 17.3 mph - N/A Rain Light Rain Showers
8:20 AM 53.6 °F 44.6 °F 72% 29.74 in 6.2 mi West 16.1 mph - N/A   Mostly Cloudy
8:50 AM 51.8 °F 46.4 °F 82% 29.74 in 6.2 mi WNW 19.6 mph - N/A Rain Light Rain Showers
9:20 AM 51.8 °F 42.8 °F 71% 29.74 in 6.2 mi WNW 16.1 mph - N/A Tornado Funnel Cloud
10:00 AM 50 °F 44 °F 75% 29.76 in 4 mi WNW 18.4 mph - - Rain Heavy Rain Showers
10:20 AM 53.6 °F 46.4 °F 77% 29.74 in 6.2 mi WNW 19.6 mph - N/A   Mostly Cloudy
10:50 AM 53.6 °F 46.4 °F 77% 29.74 in 6.2 mi West 19.6 mph - N/A   Scattered Clouds
11:20 AM 55.4 °F 44.6 °F 67% 29.74 in 6.2 mi WNW 24.2 mph - N/A   Partly Cloudy
11:50 AM 55.4 °F 44.6 °F 67% 29.74 in 6.2 mi WNW 17.3 mph - N/A   Scattered Clouds
12:20 PM 55.4 °F 41.0 °F 58% 29.77 in 6.2 mi WNW 19.6 mph - N/A   Partly Cloudy
12:50 PM 55.4 °F 42.8 °F 63% 29.77 in 6.2 mi West 18.4 mph - N/A   Partly Cloudy
1:00 PM 55 °F 42 °F 52% 29.77 in 31 mi WNW 23.0 mph - -   Partly Cloudy
1:20 PM 55.4 °F 42.8 °F 63% 29.77 in 6.2 mi WNW 20.7 mph - N/A   Partly Cloudy
1:50 PM 55.4 °F 42.8 °F 63% 29.77 in 6.2 mi WNW 18.4 mph - N/A   Partly Cloudy
2:20 PM 55.4 °F 42.8 °F 63% 29.77 in 6.2 mi WNW 21.9 mph - N/A   Partly Cloudy
2:50 PM 53.6 °F 41.0 °F 62% 29.77 in 6.2 mi WNW 16.1 mph - N/A   Partly Cloudy
3:20 PM 55.4 °F 42.8 °F 63% 29.77 in 6.2 mi West 16.1 mph - N/A   Partly Cloudy
3:50 PM 55.4 °F 41.0 °F 58% 29.74 in 6.2 mi West 20.7 mph - N/A   Partly Cloudy
4:00 PM 56 °F 42 °F 48% 29.76 in 31 mi West 19.6 mph - -   Scattered Clouds
4:20 PM 53.6 °F 41.0 °F 62% 29.74 in 6.2 mi WNW 17.3 mph - N/A   Partly Cloudy
4:50 PM 53.6 °F 41.0 °F 62% 29.74 in 6.2 mi WNW 18.4 mph - N/A   Partly Cloudy
5:20 PM 53.6 °F 42.8 °F 67% 29.74 in 6.2 mi West 18.4 mph - N/A   Partly Cloudy
5:50 PM 51.8 °F 41.0 °F 67% 29.74 in 6.2 mi West 17.3 mph - N/A   Partly Cloudy
6:20 PM 51.8 °F 41.0 °F 67% 29.74 in 6.2 mi West 12.7 mph - N/A   Partly Cloudy
6:50 PM 51.8 °F 42.8 °F 71% 29.74 in 6.2 mi West 10.4 mph - N/A   Partly Cloudy
7:00 PM 52 °F 42 °F 60% 29.76 in 25 mi West 16.1 mph - -   Scattered Clouds
7:20 PM 51.8 °F 41.0 °F 67% 29.74 in 6.2 mi West 13.8 mph - N/A   Partly Cloudy
7:50 PM 51.8 °F 41.0 °F 67% 29.74 in 6.2 mi West 11.5 mph - N/A   Partly Cloudy
8:20 PM 51.8 °F 41.0 °F 67% 29.74 in 6.2 mi West 15.0 mph - N/A   Partly Cloudy
8:50 PM 51.8 °F 41.0 °F 67% 29.74 in 6.2 mi West 13.8 mph - N/A   Partly Cloudy
9:20 PM 51.8 °F 41.0 °F 67% 29.74 in 6.2 mi West 17.3 mph - N/A   Partly Cloudy
10:00 PM 52 °F 43 °F 62% 29.74 in 25 mi West 11.5 mph - -   Partly Cloudy